Tracking 31027 objects as of 19-Jul-2025
HD Live streaming from Space Station
objects crossing your sky now

STARLINK-5697

Track STARLINK-5697 now!
10-day predictions
STARLINK-5697 is classified as:


NORAD ID: 55589
Int'l Code: 2023-020W
Perigee: 565.5 km
Apogee: 567.0 km
Inclination: 43.0 °
Period: 95.8 minutes
Semi major axis: 6937 km
RCS: Unknown
Launch date: February 12, 2023
Source: United States (US)
Launch site: AIR FORCE EASTERN TEST RANGE (AFETR)
Your satellite tracking list
COSMOS 1656
Track 1 satellite(s)




NASA's NSSDC Master Catalog

Two Line Element Set (TLE):
1 55589U 23020W   25199.37455025  .00000334  00000-0  39814-4 0  9995
2 55589  43.0033 197.7196 0001090 282.9376  77.1345 15.02531489133679
Source of the keplerian elements: AFSPC